�N����,����,�~����,�C��,���x,�C��,����,���ϕ���,�ő�u�ԕ���,�ő厞����,���˗�,�I�_���x,�n�����x,�ő啗���N��,DTYPE
"23/11/03","00:10",0.0,12.8,94.3,1014.2,296.8,1.7,2.1,301.3,0.00,11.9,15.3,"00:07:10",1
"23/11/03","00:20",0.0,12.5,94.5,1014.5,311.3,1.8,2.2,306.9,0.00,11.7,15.4,"00:15:20",1
"23/11/03","00:30",0.0,12.2,94.7,1014.5,312.6,1.8,2.5,316.8,0.00,11.4,15.3,"00:29:46",1
"23/11/03","00:40",0.0,11.6,95.0,1014.2,313.3,2.1,2.4,319.8,0.00,10.9,15.2,"00:30:58",1
"23/11/03","00:50",0.0,11.5,95.3,1014.5,310.7,1.8,2.5,323.2,0.00,10.8,15.4,"00:46:28",1
"23/11/03","01:00",0.0,11.4,95.3,1014.5,308.8,2.0,2.4,321.9,0.00,10.7,15.2,"00:53:08",1
"23/11/03","01:10",0.0,11.1,95.4,1014.0,299.5,1.3,1.8,309.1,0.00,10.4,15.2,"01:01:06",1
"23/11/03","01:20",0.0,11.1,95.6,1014.0,317.1,2.1,2.4,318.8,0.00,10.5,15.2,"01:13:38",1
"23/11/03","01:30",0.0,11.2,95.7,1013.5,303.3,1.7,2.0,318.1,0.00,10.6,15.1,"01:20:10",1
"23/11/03","01:40",0.0,10.9,95.8,1013.8,301.8,1.2,1.8,309.9,0.00,10.3,15.0,"01:36:36",1
"23/11/03","01:50",0.0,10.7,96.0,1014.0,305.3,1.6,2.1,318.8,0.00,10.1,15.1,"01:45:02",1
"23/11/03","02:00",0.0,10.7,96.2,1013.8,307.4,1.7,2.1,317.1,0.00,10.2,15.1,"01:59:04",1
"23/11/03","02:10",0.0,10.9,96.2,1014.0,311.4,1.7,2.0,318.8,0.00,10.4,14.9,"02:05:32",1
"23/11/03","02:20",0.0,10.7,96.2,1013.8,292.1,1.1,1.3,297.6,0.00,10.2,15.1,"02:11:50",1
"23/11/03","02:30",0.0,10.7,96.4,1014.0,285.2,0.6,1.1,289.2,0.00,10.2,14.9,"02:20:20",1
"23/11/03","02:40",0.0,10.7,96.5,1013.8,306.0,1.0,2.1,321.6,0.00,10.2,15.0,"02:37:22",1
"23/11/03","02:50",0.0,10.7,96.7,1013.8,324.5,1.6,2.0,324.6,0.00,10.2,14.8,"02:43:12",1
"23/11/03","03:00",0.0,10.6,96.7,1013.8,297.6,1.0,1.7,315.0,0.00,10.1,14.7,"02:50:40",1
"23/11/03","03:10",0.0,10.5,96.6,1013.5,291.1,1.0,1.1,289.6,0.00,10.0,15.1,"03:01:44",1
"23/11/03","03:20",0.0,10.3,96.8,1013.8,300.3,1.2,1.7,312.4,0.00,9.9,14.9,"03:17:28",1
"23/11/03","03:30",0.0,10.4,97.0,1013.5,311.3,1.6,1.9,314.2,0.00,10.0,14.8,"03:28:56",1
"23/11/03","03:40",0.0,10.2,96.9,1013.5,299.5,1.3,1.8,315.6,0.00,9.8,14.5,"03:30:08",1
"23/11/03","03:50",0.0,10.1,97.0,1013.5,301.1,1.1,1.4,310.0,0.00,9.7,14.6,"03:43:20",1
"23/11/03","04:00",0.0,10.3,97.2,1013.5,294.4,1.1,1.6,317.2,0.00,9.9,14.7,"03:59:36",1
"23/11/03","04:10",0.0,10.2,97.1,1013.5,310.6,1.1,1.6,319.6,0.00,9.8,14.6,"04:00:56",1
"23/11/03","04:20",0.0,9.9,97.2,1013.8,299.5,1.0,1.6,320.9,0.00,9.5,14.7,"04:19:12",1
"23/11/03","04:30",0.0,9.9,97.3,1014.0,313.4,1.3,1.8,324.6,0.00,9.5,14.7,"04:20:40",1
"23/11/03","04:40",0.0,10.0,97.5,1014.0,317.7,1.5,1.8,320.7,0.00,9.7,14.4,"04:37:28",1
"23/11/03","04:50",0.0,9.8,97.4,1014.0,290.9,0.7,1.1,314.1,0.00,9.4,14.7,"04:40:48",1
"23/11/03","05:00",0.0,10.0,97.5,1014.0,301.1,1.2,1.8,320.1,0.00,9.7,14.3,"04:58:16",1
"23/11/03","05:10",0.0,9.9,97.5,1014.0,298.0,1.1,1.4,307.8,0.00,9.6,14.1,"05:03:28",1
"23/11/03","05:20",0.0,9.7,97.6,1014.0,296.8,1.1,1.4,306.5,0.00,9.4,14.2,"05:10:08",1
"23/11/03","05:30",0.0,9.7,97.6,1013.8,295.4,1.2,1.9,321.3,0.00,9.4,14.1,"05:23:04",1
"23/11/03","05:40",0.0,9.5,97.8,1014.0,291.4,1.2,1.8,306.9,0.00,9.2,14.4,"05:37:04",1
"23/11/03","05:50",0.0,9.5,97.8,1014.2,289.4,1.1,1.4,304.8,0.00,9.2,14.1,"05:42:16",1
"23/11/03","06:00",0.0,9.7,98.0,1014.0,302.5,1.3,1.8,307.9,0.00,9.4,14.2,"05:52:40",1
"23/11/03","06:10",0.0,10.0,97.2,1014.2,282.8,1.0,1.4,301.9,0.00,9.6,14.1,"06:00:08",1
"23/11/03","06:20",0.0,9.5,97.8,1014.5,262.6,0.8,1.2,292.4,0.00,9.2,14.1,"06:19:12",1
"23/11/03","06:30",0.0,9.6,97.9,1014.5,291.7,1.2,1.8,311.9,0.00,9.3,14.1,"06:25:44",1
"23/11/03","06:40",0.0,9.5,98.0,1014.5,279.0,1.1,1.3,295.3,0.00,9.2,13.9,"06:38:08",1
"23/11/03","06:50",0.0,9.8,97.5,1014.5,248.9,0.6,1.1,289.2,0.00,9.5,14.1,"06:41:28",1
"23/11/03","07:00",0.0,9.8,98.1,1014.7,277.2,1.0,1.3,300.6,0.00,9.6,14.0,"06:56:16",1
"23/11/03","07:10",0.0,10.5,97.6,1014.5,279.7,1.2,1.6,298.5,0.01,10.2,14.0,"07:07:36",1
"23/11/03","07:20",0.0,11.2,98.0,1014.7,279.8,1.3,1.4,285.9,0.02,10.9,14.0,"07:11:28",1
"23/11/03","07:30",0.0,12.3,97.3,1015.2,237.2,0.6,1.0,281.7,0.03,11.9,13.9,"07:20:12",1
"23/11/03","07:40",0.0,12.8,97.6,1015.4,179.3,0.5,0.6,167.8,0.05,12.5,13.7,"07:31:36",1
"23/11/03","07:50",0.0,13.1,97.5,1015.6,279.6,0.5,0.9,313.5,0.06,12.8,13.8,"07:42:48",1
"23/11/03","08:00",0.0,13.7,97.6,1015.2,196.2,0.2,0.5,294.4,0.08,13.4,13.8,"07:50:24",1
"23/11/03","08:10",0.0,14.2,97.4,1015.6,179.5,0.3,0.6,172.5,0.09,13.8,13.9,"08:02:40",1
"23/11/03","08:20",0.0,14.6,97.4,1015.6,216.9,0.5,0.6,216.4,0.11,14.2,13.9,"08:10:08",1
"23/11/03","08:30",0.0,15.2,97.3,1015.6,174.7,0.2,0.8,214.6,0.13,14.8,14.0,"08:20:40",1
"23/11/03","08:40",0.0,15.8,97.2,1015.6,262.1,0.3,0.6,118.9,0.15,15.4,14.0,"08:37:04",1
"23/11/03","08:50",0.0,15.9,96.3,1015.6,237.9,0.6,1.7,234.3,0.17,15.4,14.1,"08:47:36",1
"23/11/03","09:00",0.0,16.5,96.1,1015.6,236.5,0.5,1.3,248.7,0.19,15.9,14.2,"08:57:36",1
"23/11/03","09:10",0.0,16.9,94.8,1015.2,211.0,0.3,1.0,136.3,0.20,16.1,14.3,"09:04:24",1
"23/11/03","09:20",0.0,16.7,94.9,1015.6,224.1,1.0,2.1,201.6,0.22,15.9,14.1,"09:12:00",1
"23/11/03","09:30",0.0,18.0,94.2,1015.6,228.4,0.3,0.8,148.0,0.24,17.1,14.3,"09:23:04",1
"23/11/03","09:40",0.0,17.7,91.6,1015.2,232.0,0.7,1.7,244.5,0.26,16.4,14.6,"09:38:32",1
"23/11/03","09:50",0.0,18.9,89.1,1015.9,287.0,0.7,1.6,317.9,0.28,17.1,14.6,"09:44:08",1
"23/11/03","10:00",0.0,19.5,84.9,1015.9,256.5,1.0,2.1,242.8,0.30,16.9,14.7,"09:58:56",1
"23/11/03","10:10",0.0,20.4,79.2,1015.4,229.2,0.7,1.7,259.7,0.31,16.7,14.7,"10:00:32",1
"23/11/03","10:20",0.0,21.2,74.1,1015.2,238.4,0.7,2.2,215.1,0.34,16.4,14.7,"10:13:52",1
"23/11/03","10:30",0.0,21.5,71.7,1014.9,250.8,1.0,2.0,215.9,0.35,16.2,14.7,"10:21:44",1
"23/11/03","10:40",0.0,22.1,69.1,1014.7,100.4,0.7,1.6,153.1,0.36,16.2,14.9,"10:31:28",1
"23/11/03","10:50",0.0,22.7,66.9,1014.2,193.9,0.7,1.6,101.1,0.36,16.3,15.1,"10:48:32",1
"23/11/03","11:00",0.0,23.1,65.6,1014.0,153.3,0.8,2.0,106.2,0.37,16.4,15.0,"10:56:24",1
"23/11/03","11:10",0.0,23.7,64.8,1013.5,127.3,0.6,1.3,94.0,0.38,16.7,15.4,"11:03:52",1
"23/11/03","11:20",0.0,23.9,62.5,1013.5,162.4,1.0,1.7,91.4,0.38,16.3,15.4,"11:12:00",1
"23/11/03","11:30",0.0,24.0,61.7,1013.0,192.5,1.1,2.6,213.2,0.38,16.2,15.6,"11:27:12",1
"23/11/03","11:40",0.0,24.0,60.1,1012.6,189.4,1.2,3.7,210.7,0.39,15.8,15.6,"11:36:48",1
"23/11/03","11:50",0.0,24.6,58.2,1012.1,185.0,0.7,2.1,205.8,0.38,15.9,15.7,"11:44:32",1
"23/11/03","12:00",0.0,24.7,57.7,1012.1,164.4,1.0,2.5,115.5,0.38,15.8,15.9,"11:50:32",1
"23/11/03","12:10",0.0,24.7,57.5,1011.9,175.2,1.2,3.2,200.0,0.38,15.8,16.0,"12:09:28",1
"23/11/03","12:20",0.0,24.4,57.1,1011.6,206.9,1.7,3.2,209.4,0.37,15.4,16.2,"12:14:08",1
"23/11/03","12:30",0.0,25.0,56.3,1011.9,215.4,1.0,2.9,228.3,0.37,15.7,16.1,"12:20:48",1
"23/11/03","12:40",0.0,25.3,56.3,1011.9,200.9,1.1,2.6,228.4,0.36,16.0,16.2,"12:34:00",1
"23/11/03","12:50",0.0,25.6,54.9,1012.1,151.9,0.8,2.1,170.0,0.35,15.9,16.5,"12:43:20",1
"23/11/03","13:00",0.0,25.3,54.6,1011.6,196.0,1.2,2.6,198.8,0.34,15.5,16.5,"12:54:40",1
"23/11/03","13:10",0.0,25.6,53.7,1011.4,185.6,1.0,3.2,204.0,0.33,15.6,16.9,"13:06:24",1
"23/11/03","13:20",0.0,26.0,53.1,1011.2,142.7,0.8,2.4,231.7,0.31,15.8,16.7,"13:11:44",1
"23/11/03","13:30",0.0,25.8,52.2,1011.4,157.5,1.2,2.5,131.4,0.30,15.3,16.9,"13:20:32",1
"23/11/03","13:40",0.0,25.9,51.1,1011.4,181.0,1.1,2.0,156.4,0.29,15.1,16.9,"13:30:56",1
"23/11/03","13:50",0.0,26.3,49.8,1011.4,206.4,0.7,2.1,220.4,0.28,15.0,17.0,"13:42:40",1
"23/11/03","14:00",0.0,26.6,48.2,1011.6,191.7,1.1,2.6,232.5,0.26,14.8,17.0,"13:58:08",1
"23/11/03","14:10",0.0,26.8,47.3,1011.2,135.3,0.8,2.4,161.3,0.24,14.7,17.2,"14:01:12",1
"23/11/03","14:20",0.0,26.7,46.4,1011.2,196.2,1.0,2.9,127.9,0.22,14.3,17.2,"14:15:36",1
"23/11/03","14:30",0.0,27.0,46.6,1011.2,191.4,0.6,2.0,177.9,0.20,14.6,17.2,"14:26:00",1
"23/11/03","14:40",0.0,27.6,46.1,1011.4,177.2,0.6,1.7,121.5,0.18,15.0,17.3,"14:38:16",1
"23/11/03","14:50",0.0,27.4,45.4,1011.4,134.4,0.6,1.8,101.1,0.16,14.6,17.4,"14:44:00",1
"23/11/03","15:00",0.0,27.4,44.4,1011.2,13.2,0.7,2.2,359.7,0.14,14.3,17.5,"14:59:36",1
"23/11/03","15:10",0.0,26.7,46.9,1010.7,225.3,1.2,2.8,226.4,0.13,14.5,17.3,"15:06:40",1
"23/11/03","15:20",0.0,26.4,44.4,1010.4,172.9,1.2,2.9,127.8,0.11,13.4,17.5,"15:13:52",1
"23/11/03","15:30",0.0,26.0,46.4,1010.4,210.5,1.7,3.9,212.4,0.09,13.7,17.7,"15:22:24",1
"23/11/03","15:40",0.0,26.1,49.2,1010.4,213.5,1.1,2.4,227.9,0.07,14.7,17.6,"15:35:36",1
"23/11/03","15:50",0.0,25.5,47.0,1010.4,218.0,1.2,2.5,230.2,0.05,13.4,17.6,"15:46:16",1
"23/11/03","16:00",0.0,25.5,49.0,1011.2,232.2,1.0,1.8,229.2,0.04,14.1,17.6,"15:51:04",1
"23/11/03","16:10",0.0,24.7,50.8,1010.7,219.7,1.2,2.4,240.2,0.02,13.9,17.8,"16:09:44",1
"23/11/03","16:20",0.0,24.5,53.3,1011.2,244.5,0.7,1.9,237.3,0.01,14.4,17.6,"16:11:04",1
"23/11/03","16:30",0.0,24.0,53.8,1011.4,319.4,0.3,1.0,337.6,0.00,14.1,17.6,"16:24:40",1
"23/11/03","16:40",0.0,23.0,56.6,1011.6,341.2,0.8,1.3,357.4,0.00,14.0,17.7,"16:37:04",1
"23/11/03","16:50",0.0,21.7,60.0,1011.9,309.1,0.5,1.0,309.8,0.00,13.6,17.7,"16:47:04",1
"23/11/03","17:00",0.0,20.9,62.8,1012.1,316.6,1.0,1.4,313.3,0.00,13.6,17.5,"16:55:28",1
"23/11/03","17:10",0.0,20.4,65.5,1012.1,338.5,1.2,1.9,336.3,0.00,13.8,17.6,"17:00:40",1
"23/11/03","17:20",0.0,19.8,67.7,1012.3,339.2,1.1,1.7,341.5,0.00,13.7,17.5,"17:14:40",1
"23/11/03","17:30",0.0,19.0,69.4,1012.6,335.6,0.6,1.4,339.5,0.00,13.3,17.5,"17:20:32",1
"23/11/03","17:40",0.0,18.2,71.0,1012.6,336.4,0.5,1.6,320.3,0.00,12.9,17.3,"17:38:56",1
"23/11/03","17:50",0.0,17.1,72.7,1012.8,303.8,0.8,1.4,335.8,0.00,12.2,17.3,"17:40:32",1
"23/11/03","18:00",0.0,17.0,74.9,1012.8,292.6,1.0,1.6,331.9,0.00,12.6,17.4,"17:57:36",1
"23/11/03","18:10",0.0,17.0,77.5,1013.0,298.2,1.3,1.7,313.4,0.00,13.1,17.2,"18:03:20",1
"23/11/03","18:20",0.0,17.3,78.3,1012.8,299.6,1.3,3.1,315.3,0.00,13.5,17.3,"18:11:20",1
"23/11/03","18:30",0.0,17.3,78.2,1013.0,304.2,1.2,2.0,324.8,0.00,13.5,17.2,"18:26:32",1
"23/11/03","18:40",0.0,17.2,77.8,1013.3,304.4,1.1,1.6,317.9,0.00,13.3,17.0,"18:30:08",1
"23/11/03","18:50",0.0,16.9,78.5,1013.3,294.0,1.2,2.6,316.9,0.00,13.2,17.2,"18:47:30",1
"23/11/03","19:00",0.0,16.8,79.2,1013.0,284.7,1.3,2.1,304.1,0.00,13.2,17.0,"18:59:44",1
"23/11/03","19:10",0.0,16.8,79.5,1013.3,305.5,1.3,2.2,302.8,0.00,13.3,16.9,"19:00:08",1
"23/11/03","19:20",0.0,16.3,80.0,1013.3,304.4,1.2,1.6,321.7,0.00,12.9,17.0,"19:14:24",1
"23/11/03","19:30",0.0,16.3,80.8,1013.3,294.6,1.2,2.0,264.5,0.00,13.0,16.8,"19:23:52",1
"23/11/03","19:40",0.0,16.4,81.5,1013.8,290.9,1.3,2.9,323.7,0.00,13.3,16.7,"19:38:32",1
"23/11/03","19:50",0.0,16.0,81.7,1013.8,308.0,1.2,1.8,325.8,0.00,12.9,16.7,"19:45:28",1
"23/11/03","20:00",0.0,15.4,82.4,1013.8,315.2,1.3,1.8,325.8,0.00,12.5,16.7,"19:54:32",1
"23/11/03","20:10",0.0,14.8,83.1,1013.8,304.9,0.8,1.2,311.7,0.00,12.0,16.6,"20:01:04",1
"23/11/03","20:20",0.0,14.4,84.0,1013.5,306.3,1.1,1.7,321.6,0.00,11.8,16.4,"20:16:56",1
"23/11/03","20:30",0.0,14.3,85.6,1013.8,317.7,1.6,1.9,326.6,0.00,12.0,16.4,"20:22:00",1
"23/11/03","20:40",0.0,13.9,86.6,1013.8,302.2,1.1,1.8,322.1,0.00,11.7,16.5,"20:30:24",1
"23/11/03","20:50",0.0,13.8,87.3,1013.8,283.6,0.5,1.1,298.4,0.00,11.8,16.3,"20:49:10",1
"23/11/03","21:00",0.0,13.7,88.2,1014.0,305.2,1.5,2.1,320.5,0.00,11.8,16.4,"20:59:36",1
"23/11/03","21:10",0.0,13.4,88.8,1014.2,306.0,1.3,1.8,312.6,0.00,11.6,16.3,"21:04:42",1
"23/11/03","21:20",0.0,13.2,89.3,1014.2,288.8,0.8,1.2,303.5,0.00,11.5,16.2,"21:12:16",1
"23/11/03","21:30",0.0,13.2,89.9,1014.5,303.9,1.3,2.2,321.4,0.00,11.6,16.3,"21:29:48",1
"23/11/03","21:40",0.0,13.2,90.4,1014.5,312.7,1.7,2.5,313.1,0.00,11.7,16.2,"21:32:02",1
"23/11/03","21:50",0.0,13.3,90.9,1014.7,287.6,0.8,1.7,308.8,0.00,11.9,16.0,"21:44:26",1
"23/11/03","22:00",0.0,13.2,91.3,1014.7,303.5,1.1,2.4,318.8,0.00,11.9,15.9,"21:59:46",1
"23/11/03","22:10",0.0,12.9,91.7,1014.9,315.9,2.1,2.6,318.6,0.00,11.6,16.1,"22:04:20",1
"23/11/03","22:20",0.0,12.6,92.1,1015.2,304.4,1.6,2.0,312.7,0.00,11.4,16.0,"22:10:20",1
"23/11/03","22:30",0.0,12.7,92.3,1014.9,300.1,1.5,1.9,318.1,0.00,11.5,16.1,"22:20:22",1
"23/11/03","22:40",0.0,12.7,92.6,1014.9,302.5,1.5,1.8,308.8,0.00,11.6,15.9,"22:34:16",1
"23/11/03","22:50",0.0,12.7,92.9,1014.9,312.7,2.0,2.4,314.0,0.00,11.6,15.8,"22:43:26",1
"23/11/03","23:00",0.0,12.4,93.1,1014.7,308.9,1.8,2.2,317.7,0.00,11.4,15.7,"22:58:14",1
"23/11/03","23:10",0.0,12.5,93.3,1015.4,304.4,1.7,2.0,317.0,0.00,11.5,15.8,"23:02:30",1
"23/11/03","23:20",0.0,12.4,93.4,1014.9,305.0,1.6,1.8,322.1,0.00,11.4,15.7,"23:10:18",1
"23/11/03","23:30",0.0,12.2,93.7,1014.7,309.6,1.7,1.9,310.2,0.00,11.3,15.6,"23:28:32",1
"23/11/03","23:40",0.0,12.2,93.9,1015.2,311.7,2.1,2.5,318.2,0.00,11.3,15.6,"23:36:06",1
"23/11/03","23:50",0.0,12.1,94.1,1014.7,308.5,1.8,2.1,315.4,0.00,11.2,15.5,"23:41:46",1
"23/11/03","24:00",0.0,12.0,94.3,1015.2,305.7,1.8,2.2,318.8,0.00,11.2,15.6,"23:58:10",1
